Wetbulb
58.99 59.29 59.63 59.56 59.23 59.29 59.33 59.49 59.47 59.69 60.06 60.19 60.43 60.47 60.18 60.10 60.00 60.58 55.94 61.66 63.18 68.16 68.40 62.18 63.04 61.22 61.03 59.80 62.57 63.37 56.89 54.15 57.03 56.30 58.64 62.72 62.09 66.26 67.72 66.20 67.06 67.53 66.94 68.06 69.72
59.06 59.20 59.40 59.40 59.17 59.05 59.00 59.00 59.38 59.55 59.53 59.90 60.10 60.02 60.01 59.83 60.18 59.43 66.94 69.39 68.24 69.60 61.92 59.83 59.37 59.56 58.49 60.72 61.75 61.29 57.61 56.55 60.73 61.06 60.22 62.08 63.08 64.18 64.43 64.26 64.28 65.30 67.96 69.31 69.34
59.12 59.19 59.31 59.35 59.27 58.76 58.65 58.67 59.02 59.43 59.56 59.51 59.66 59.84 60.12 59.65 60.84 60.62 68.58 69.01 69.38 68.81 61.92 61.78 60.54 59.86 58.74 60.65 60.34 59.35 56.92 59.84 61.23 62.07 62.58 62.08 62.39 62.82 60.17 62.05 64.49 63.58 65.70 67.80 68.00
59.04 59.07 59.05 58.95 58.93 58.58 58.34 58.54 58.74 59.22 59.36 59.20 59.34 59.57 60.19 61.23 54.72 60.23 69.21 69.52 69.45 65.79 61.54 59.58 59.29 58.64 57.90 56.89 62.26 58.70 60.75 61.64 61.81 62.61 62.70 61.32 63.96 64.42 64.37 64.47 66.40 66.54 67.16 66.92 65.62
58.55 58.73 58.56 58.40 58.31 58.15 58.03 58.14 58.33 58.56 58.59 58.77 59.68 60.58 60.17 60.53 59.87 64.22 69.75 68.64 63.21 61.44 60.57 58.07 57.86 58.86 56.22 57.31 58.27 58.88 60.45 61.74 62.13 63.31 62.84 63.90 62.85 63.17 63.79 66.04 67.05 66.96 66.57 65.49 64.23
58.16 58.02 58.09 57.93 57.87 57.87 57.64 57.44 57.38 57.51 57.95 58.93 61.07 60.46 61.09 54.81 63.34 63.08 62.20 62.23 59.38 59.77 58.78 58.84 59.29 60.02 56.54 56.46 56.74 61.73 60.95 61.40 62.17 62.66 62.87 62.67 62.63 63.59 63.94 66.16 65.69 65.82 65.29 63.91 63.11
57.81 57.75 57.68 57.73 57.80 57.89 57.66 57.36 56.80 57.30 58.58 59.58 61.61 61.70 59.53 58.50 65.03 63.03 62.13 59.47 59.89 58.38 57.45 60.21 60.53 57.51 58.54 56.10 62.29 61.95 58.52 60.39 61.99 62.31 62.18 63.53 59.97 61.48 64.54 65.39 64.28 64.55 63.96 62.94 63.20
57.79 57.47 57.51 57.64 57.91 57.90 57.85 57.44 57.03 57.74 59.35 61.06 60.73 62.44 58.95 63.53 65.20 63.30 62.52 59.18 60.25 59.27 59.68 61.38 59.95 57.46 56.76 61.23 59.77 58.32 59.01 55.48 59.56 61.64 62.45 61.77 56.46 62.72 64.55 63.45 62.06 62.32 62.40 62.71 63.20
57.77 57.26 57.32 57.62 57.78 57.89 57.17 56.82 57.46 58.90 60.49 62.03 61.52 61.94 56.02 63.96 60.76 62.92 62.44 58.10 58.84 58.62 59.80 60.16 58.56 56.70 61.44 57.86 55.92 56.94 51.63 50.92 52.47 59.07 60.29 60.81 56.96 62.55 64.36 63.24 61.46 61.81 62.20 62.59 63.16
57.67 57.23 56.98 57.32 57.57 57.23 56.41 56.31 60.75 59.81 61.01 62.44 62.50 59.13 60.22 57.02 61.13 61.20 62.37 60.16 56.74 56.79 56.43 55.81 55.29 54.18 58.68 55.83 50.36 52.12 51.78 53.94 51.41 56.03 58.06 59.28 58.64 63.04 63.99 63.13 62.55 62.28 62.54 62.56 63.04
57.83 57.35 57.00 56.98 56.98 56.46 56.63 59.62 59.15 58.26 59.96 56.28 57.43 57.08 57.08 60.47 61.87 58.25 59.59 57.82 56.92 54.88 52.07 54.77 51.64 51.21 55.58 57.02 56.60 56.33 55.22 55.05 56.46 58.15 55.91 57.21 58.32 61.98 63.26 62.96 62.79 63.16 62.48 63.20 63.46
57.69 57.30 56.87 56.61 56.49 56.14 57.81 56.83 55.28 56.54 52.16 57.53 57.25 58.46 58.75 60.45 55.88 56.33 59.11 54.58 53.99 50.04 53.24 52.61 50.24 54.82 57.85 57.64 56.16 55.22 54.20 53.88 57.40 60.39 58.86 55.99 55.83 60.34 62.93 62.73 62.92 62.96 62.75 62.98 63.34
56.69 55.81 55.61 55.85 55.77 58.10 58.93 56.74 59.00 59.42 53.25 55.68 56.34 57.18 57.29 57.52 55.55 54.75 56.15 54.61 52.02 50.41 50.90 50.72 52.64 55.24 55.36 55.44 54.72 54.94 54.13 54.38 52.53 58.36 59.44 56.68 53.62 56.60 62.68 64.02 63.85 64.33 64.55 63.96 63.08
55.57 54.86 54.60 54.37 55.33 59.80 57.52 59.20 58.96 61.61 50.66 52.56 54.10 55.78 57.63 57.04 53.29 58.63 56.66 54.59 52.90 50.38 50.47 51.32 55.39 54.13 53.45 53.25 55.11 52.26 56.17 55.44 53.16 51.87 48.87 56.60 49.10 56.64 60.05 61.83 62.66 63.25 63.69 63.36 63.62
54.98 55.12 54.68 54.86 57.78 57.38 58.24 59.50 58.76 60.09 43.66 54.05 53.85 58.91 57.58 54.50 54.74 55.79 57.73 54.79 51.19 51.51 51.83 49.94 52.00 52.29 51.62 52.51 54.61 52.15 54.71 53.14 53.05 51.43 51.39 52.25 50.28 54.03 59.52 59.83 60.84 62.66 63.55 63.57 63.98
54.70 55.04 54.88 58.92 59.77 61.31 61.03 59.25 57.79 49.50 43.49 51.45 53.93 52.92 52.89 54.47 54.62 56.16 54.41 55.46 55.32 51.73 52.65 52.31 55.39 53.89 52.72 53.60 53.63 54.50 52.97 52.75 53.28 51.50 46.78 52.35 50.71 51.15 57.52 59.69 61.44 63.10 63.17 62.99 63.26
54.47 54.66 54.21 58.10 56.48 61.14 60.58 55.99 46.77 44.65 54.27 51.28 50.62 51.93 52.12 52.10 53.39 53.47 52.08 49.66 48.68 46.54 48.03 50.09 51.10 53.48 53.37 50.54 52.89 52.24 50.96 45.46 45.13 46.38 44.86 53.35 50.15 50.61 56.49 62.83 63.09 62.86 62.35 63.05 63.01
53.21 52.71 56.44 59.54 61.97 61.62 58.08 50.61 42.94 48.87 52.25 54.40 51.51 51.15 49.80 52.64 52.73 53.28 51.78 47.94 51.35 50.64 48.68 46.37 45.13 51.17 53.09 51.03 50.07 51.35 51.33 47.37 43.67 44.53 47.88 53.75 48.73 52.29 62.04 62.88 64.46 65.07 63.08 62.89 62.76
51.83 59.48 60.08 62.27 63.11 61.13 52.72 44.66 46.48 52.04 54.17 53.02 52.69 48.73 49.29 51.72 52.44 52.77 52.09 49.55 50.78 52.25 48.27 47.64 47.34 53.69 53.35 53.57 53.96 52.64 50.22 54.46 52.40 53.16 48.89 51.02 53.53 59.96 61.46 61.12 63.06 63.15 63.08 62.52 61.36
55.43 56.66 57.77 62.89 61.70 55.83 49.12 44.64 49.21 53.44 54.66 53.95 50.11 51.93 48.07 49.88 50.35 51.69 51.55 53.84 51.93 52.82 55.02 51.66 48.05 52.99 52.77 54.14 54.23 54.54 56.55 51.31 52.45 45.89 44.31 48.92 50.44 51.06 55.22 59.79 61.41 62.16 62.59 62.79 61.90
55.49 54.25 60.33 61.21 59.61 52.04 44.97 47.36 50.43 53.56 53.81 52.21 52.54 53.02 52.36 50.46 50.54 50.40 51.51 54.20 55.21 53.67 54.33 52.25 52.47 51.77 52.90 50.90 50.64 52.74 52.05 54.76 55.55 51.99 46.85 44.34 47.74 57.07 58.64 61.44 60.91 62.67 62.78 62.24 61.78
56.01 50.49 59.20 59.04 49.65 49.55 46.28 49.76 51.86 51.97 52.52 52.69 54.63 54.50 53.83 53.58 50.81 50.06 50.56 53.35 56.46 55.91 51.55 53.56 55.71 50.34 51.87 54.31 55.60 54.09 53.56 54.58 50.86 50.39 50.38 50.37 49.83 60.39 61.60 62.60 63.10 62.34 62.24 62.26 61.68
53.25 54.34 60.70 57.99 44.81 46.54 49.40 49.74 51.86 51.38 51.10 51.60 52.71 54.72 56.57 54.38 50.83 52.09 52.09 55.76 56.44 55.19 53.84 55.58 53.33 48.50 51.29 53.27 55.29 52.49 53.56 55.23 57.31 53.46 50.14 48.47 50.45 59.86 60.99 61.97 62.92 61.62 61.76 61.58 61.32
53.23 49.99 53.77 54.98 52.51 50.16 49.46 49.22 49.48 52.40 51.74 52.86 53.34 55.94 55.45 53.80 55.85 53.73 51.95 54.88 55.76 55.29 59.87 59.24 56.59 53.11 49.19 51.48 54.53 51.99 52.63 54.05 55.45 52.51 51.76 51.63 51.78 56.56 59.12 59.79 61.30 61.72 62.24 61.72 60.74
53.49 50.30 53.29 48.26 48.80 49.95 52.29 52.52 49.24 49.40 51.53 52.84 52.01 53.50 54.54 52.54 53.54 52.78 55.50 54.32 55.39 57.04 56.03 58.94 54.82 53.23 53.11 53.71 55.25 53.62 52.46 52.19 52.14 53.99 51.23 52.68 53.17 57.25 59.88 60.18 61.15 62.50 62.09 61.12 60.11
49.83 50.67 53.16 51.34 53.68 50.01 49.58 51.53 50.51 50.89 51.60 49.99 51.30 54.12 55.24 54.96 56.13 55.82 55.32 57.53 54.44 56.05 55.07 60.50 54.50 54.64 52.40 54.66 55.13 52.71 54.16 54.10 53.84 54.06 53.49 53.84 53.87 59.23 60.73 61.50 61.18 61.61 61.22 60.27 59.59
53.19 55.05 52.24 48.88 50.86 50.71 49.25 51.73 52.03 52.97 53.05 53.88 52.89 54.90 55.78 57.21 60.56 61.41 61.35 61.77 61.74 58.61 57.84 59.09 55.11 55.62 49.78 53.94 53.55 50.10 53.24 53.78 54.23 55.10 54.46 51.87 56.12 59.26 58.29 59.64 60.99 61.58 61.26 60.35 60.09
MSLP
1018.89 1018.54 1018.21 1017.74 1017.15 1016.41 1015.68 1015.12 1014.60 1014.37 1013.94 1013.17 1012.43 1012.16 1011.74 1011.24 1011.07 1010.56 1008.20 1006.10 1006.62 1006.66 1006.93 1006.05 1005.91 1005.02 1004.45 1003.99 1002.98 1002.03 1001.61 1001.76 1001.22 1002.01 1002.69 1003.47 1004.83 1006.05 1006.49 1007.51 1008.24 1008.66 1009.69 1011.17 1011.99
1018.88 1018.51 1017.95 1017.59 1017.02 1016.34 1015.69 1014.92 1014.38 1014.04 1013.53 1012.51 1011.95 1011.90 1011.54 1011.33 1010.49 1008.18 1006.35 1006.06 1006.37 1006.55 1006.41 1005.38 1004.83 1004.48 1003.89 1002.89 1001.91 1002.60 1001.86 1002.13 1001.12 1001.50 1002.21 1003.45 1004.62 1005.66 1007.42 1008.07 1009.11 1010.00 1010.88 1011.43 1011.64
1018.64 1018.42 1017.99 1017.50 1016.78 1016.02 1015.37 1014.84 1014.08 1013.67 1012.96 1012.10 1011.70 1011.71 1011.59 1011.28 1009.15 1005.65 1005.92 1006.12 1006.53 1006.53 1005.50 1004.71 1004.08 1003.71 1003.09 1001.87 1001.45 1003.93 1003.46 1000.85 1001.18 1001.75 1002.58 1003.70 1004.44 1006.97 1008.11 1008.09 1008.50 1009.45 1010.32 1010.74 1010.73
1018.46 1018.07 1017.84 1017.32 1016.71 1015.84 1015.20 1014.31 1013.72 1013.14 1012.48 1011.79 1011.44 1011.51 1011.34 1010.63 1007.09 1005.53 1006.11 1006.22 1006.51 1006.44 1005.74 1004.37 1003.52 1003.04 1002.34 1001.50 1002.45 1003.83 1002.61 1001.73 1001.79 1002.24 1002.82 1003.66 1004.56 1005.88 1006.86 1007.49 1008.45 1009.27 1009.88 1010.13 1010.19
1018.49 1017.87 1017.45 1017.35 1016.52 1015.55 1014.70 1013.97 1013.38 1012.75 1012.24 1011.57 1011.39 1011.22 1011.12 1008.71 1005.48 1005.64 1006.14 1006.26 1006.59 1006.71 1005.35 1003.94 1003.08 1002.50 1001.72 1001.26 1001.10 1001.39 1001.31 1001.75 1002.16 1002.40 1003.35 1004.21 1005.16 1006.59 1007.40 1008.02 1008.72 1009.38 1009.85 1010.05 1010.58
1018.33 1017.89 1017.25 1016.70 1016.48 1015.46 1014.49 1013.60 1012.80 1012.45 1011.91 1011.20 1010.98 1010.73 1009.58 1006.34 1004.24 1005.15 1005.27 1005.92 1005.74 1005.89 1004.71 1003.51 1002.74 1002.35 1002.07 1000.78 1001.11 1001.74 1001.77 1002.30 1002.85 1003.25 1003.87 1004.75 1006.11 1006.87 1007.96 1008.44 1009.06 1009.44 1009.62 1010.24 1011.14
1018.11 1017.64 1017.16 1016.43 1015.76 1015.15 1013.98 1013.21 1012.47 1011.90 1011.32 1010.88 1010.71 1010.23 1007.63 1004.60 1003.60 1004.86 1004.88 1005.13 1005.23 1004.72 1003.74 1003.00 1002.76 1002.95 1001.66 1001.08 1001.19 1001.89 1002.37 1003.09 1003.61 1004.43 1004.70 1005.21 1005.94 1006.44 1008.05 1008.53 1009.03 1009.31 1009.84 1010.74 1011.68
1017.97 1017.44 1016.86 1016.25 1015.38 1014.33 1013.23 1012.48 1011.76 1011.36 1010.88 1010.59 1010.43 1009.50 1005.86 1003.41 1003.58 1004.02 1004.41 1004.71 1004.61 1004.10 1003.27 1002.94 1003.44 1003.39 1002.63 1001.56 1001.94 1002.28 1003.13 1004.42 1006.40 1005.41 1005.00 1005.57 1006.79 1007.21 1008.02 1008.49 1008.96 1009.40 1009.96 1010.94 1011.93
1017.86 1017.34 1016.69 1015.87 1015.04 1014.08 1013.03 1011.67 1010.72 1010.34 1010.34 1010.16 1009.78 1008.27 1004.62 1004.01 1003.63 1003.39 1004.05 1004.04 1003.92 1003.79 1003.32 1003.18 1003.69 1003.24 1002.29 1001.96 1002.46 1002.88 1004.78 1007.25 1009.24 1006.40 1006.91 1005.92 1007.39 1007.13 1008.02 1008.24 1008.79 1009.33 1010.00 1010.87 1011.81
1017.69 1017.17 1016.50 1015.61 1014.59 1013.47 1012.55 1010.68 1009.35 1009.60 1009.80 1009.22 1008.17 1006.88 1004.06 1003.05 1002.76 1003.05 1003.67 1003.67 1003.83 1003.74 1003.90 1004.04 1003.76 1003.05 1002.60 1001.98 1001.96 1002.86 1005.48 1007.43 1008.36 1007.36 1007.98 1005.20 1005.21 1006.03 1007.26 1007.75 1008.16 1008.86 1009.61 1010.48 1011.54
1017.66 1017.03 1016.35 1015.39 1014.33 1013.23 1012.69 1009.82 1008.83 1008.87 1008.07 1005.83 1004.89 1003.70 1002.46 1002.27 1002.52 1003.01 1003.28 1003.36 1003.76 1003.74 1003.53 1003.50 1003.17 1002.42 1002.03 1001.83 1001.47 1002.04 1002.68 1004.39 1005.52 1005.66 1007.08 1003.76 1003.69 1004.74 1006.12 1007.06 1007.29 1007.85 1008.81 1010.00 1011.45
1017.53 1017.02 1016.22 1015.23 1014.13 1012.98 1012.60 1009.73 1008.95 1008.35 1006.89 1004.93 1003.86 1002.97 1002.39 1002.55 1002.75 1002.69 1003.10 1003.35 1003.29 1003.25 1003.24 1002.88 1002.03 1002.01 1001.77 1001.56 1001.86 1001.93 1002.08 1001.85 1001.73 1001.93 1002.46 1002.34 1002.36 1002.80 1004.42 1005.70 1006.47 1007.06 1008.03 1009.60 1011.33
1017.43 1016.98 1016.23 1015.15 1013.80 1012.28 1010.21 1009.17 1008.33 1007.63 1006.56 1003.20 1002.17 1001.98 1001.96 1002.83 1002.16 1002.08 1002.74 1002.76 1002.79 1002.85 1002.43 1001.74 1001.73 1002.05 1001.37 1000.97 1001.04 1001.19 1001.32 1001.29 1001.00 1001.10 1001.51 1001.66 1001.72 1001.86 1002.92 1004.68 1005.97 1006.61 1007.63 1009.38 1010.94
1017.39 1016.94 1016.30 1015.22 1013.48 1011.05 1009.09 1008.53 1007.96 1007.94 1005.90 1001.62 1000.65 1000.61 1001.12 1001.84 1001.71 1001.26 1002.18 1002.24 1002.02 1002.07 1002.28 1001.51 1000.61 1000.62 1000.79 1000.31 1000.27 1000.22 1000.63 1000.94 1000.82 1000.59 1000.29 1000.74 1000.88 1000.75 1001.97 1003.92 1005.23 1006.09 1007.23 1009.08 1010.75
1017.30 1016.82 1016.25 1016.31 1014.12 1010.73 1008.85 1008.43 1008.17 1007.90 1004.20 999.30 999.71 999.52 1000.13 1000.96 1000.52 1000.62 1001.53 1001.83 1001.31 1001.14 1001.53 1000.58 1000.07 999.75 999.66 999.92 999.85 1000.08 1000.40 1000.41 1000.49 1000.63 1000.90 1000.85 1001.44 1002.11 1002.74 1003.60 1004.42 1005.38 1006.59 1008.45 1010.59
1017.01 1016.67 1016.27 1013.48 1013.29 1010.75 1009.06 1008.58 1008.17 1006.59 1001.87 999.32 999.22 999.45 999.74 1000.18 999.94 1000.23 1001.07 1001.82 1001.45 1001.21 1000.60 999.96 999.53 999.59 999.95 1000.19 1000.16 1000.44 1000.33 1000.41 1001.05 1001.32 1001.43 1002.53 1003.49 1004.87 1002.68 1002.87 1003.77 1004.74 1006.20 1008.41 1010.43
1016.64 1016.30 1016.30 1015.17 1012.02 1010.43 1009.51 1008.57 1006.97 1003.56 999.43 998.89 998.68 998.90 998.96 999.52 999.21 999.71 1000.46 1001.06 1000.93 1000.94 1000.31 1000.18 999.56 999.57 1000.27 1000.68 1000.70 1000.36 1000.48 1000.56 1001.17 1001.45 1003.13 1004.64 1005.50 1004.20 1004.30 1002.31 1002.97 1004.36 1006.21 1008.42 1010.70
1016.16 1015.71 1013.96 1012.98 1011.60 1010.37 1009.94 1008.32 1005.24 1001.16 999.12 998.30 998.14 998.26 998.46 998.75 998.91 999.10 999.91 1000.24 1000.70 1000.49 1000.00 999.72 999.47 999.46 1000.00 1000.13 1000.02 1000.08 1000.44 1000.40 1000.69 1002.22 1002.21 1003.63 1004.25 1002.50 1001.58 1001.80 1002.26 1003.77 1006.47 1008.84 1010.42
1015.57 1013.45 1011.85 1010.79 1010.23 1010.07 1009.52 1006.79 1002.94 1000.46 998.31 998.24 998.00 997.87 998.06 998.20 998.43 998.56 999.24 999.69 999.73 1000.01 999.97 999.21 998.87 998.36 998.78 999.42 999.80 999.68 999.85 1000.02 1000.40 1000.90 1001.21 1002.03 1003.94 1002.37 1003.10 1003.29 1003.26 1004.56 1006.54 1008.54 1010.11
1015.47 1013.10 1010.37 1008.90 1008.80 1009.68 1008.62 1005.41 1002.16 1000.37 999.91 999.05 998.26 997.86 997.31 997.39 997.81 997.71 998.14 998.62 998.91 999.30 999.85 999.29 998.95 997.81 997.97 998.86 999.21 999.09 999.51 999.90 1000.10 1000.79 1001.36 1001.98 1003.62 1003.78 1001.96 1003.12 1003.65 1004.51 1006.05 1007.79 1009.73
1015.30 1012.09 1008.20 1008.14 1009.10 1008.87 1006.81 1004.54 1002.60 1000.97 1000.66 1000.06 999.03 998.02 996.94 996.77 997.04 997.03 997.03 997.17 997.61 997.95 998.98 999.23 999.29 997.88 997.07 997.88 998.55 998.81 999.03 999.47 999.83 1000.96 1001.90 1002.50 1003.76 1003.49 1002.24 1002.69 1003.68 1004.90 1006.32 1007.72 1009.01
1014.04 1011.02 1008.62 1008.43 1008.57 1007.43 1005.91 1004.31 1002.32 1000.91 1000.86 1000.61 999.95 998.80 997.57 996.49 996.46 996.65 996.28 996.27 996.45 997.24 997.70 998.73 998.76 998.09 997.26 997.20 998.06 998.51 998.69 999.12 999.76 1000.60 1002.03 1002.67 1002.78 1002.01 1002.31 1002.86 1003.97 1005.11 1006.37 1007.72 1009.14
1013.57 1010.77 1008.98 1008.45 1007.57 1006.32 1005.37 1003.98 1002.25 1001.52 1001.23 1000.57 999.94 999.11 998.11 997.29 996.84 996.25 996.06 995.83 995.98 996.63 997.23 998.33 998.71 998.58 997.80 997.25 997.46 997.95 998.63 998.91 999.69 1000.61 1002.08 1001.76 1002.39 1002.59 1002.53 1002.90 1004.15 1005.24 1006.51 1007.90 1009.32
1014.20 1011.22 1009.26 1008.44 1007.60 1006.04 1004.70 1003.47 1002.14 1001.67 1001.31 1000.67 1000.06 999.42 998.71 998.17 997.60 996.89 996.05 995.67 996.17 996.75 997.22 997.97 998.54 998.65 997.58 997.10 997.53 997.58 998.16 998.41 998.69 999.69 1000.11 1000.90 1001.92 1002.97 1002.78 1003.26 1004.10 1005.23 1006.54 1007.88 1009.30
1014.04 1011.74 1009.78 1007.72 1007.06 1006.38 1005.17 1003.43 1001.99 1001.46 1001.27 1001.02 1000.60 1000.12 999.28 998.60 997.78 997.40 996.55 995.97 996.31 997.28 997.31 997.93 998.53 998.68 997.92 997.72 997.38 996.66 997.21 997.79 997.97 998.55 999.19 999.89 1000.45 1001.32 1002.38 1003.28 1004.18 1005.31 1006.78 1008.03 1009.36
1014.95 1013.00 1010.88 1008.92 1006.78 1005.61 1004.60 1003.18 1001.81 1001.11 1000.41 1000.56 1000.16 999.52 999.17 998.45 997.75 997.58 996.82 996.54 996.03 997.11 997.22 997.85 998.48 998.84 998.33 997.44 997.62 997.33 997.81 996.99 997.37 998.07 998.47 999.43 1000.28 1001.25 1002.22 1003.15 1004.23 1005.45 1006.99 1008.20 1009.50
1015.87 1014.20 1013.06 1009.80 1007.41 1005.48 1004.25 1003.35 1002.04 1000.92 1000.42 999.84 999.93 999.56 998.83 998.85 998.92 998.54 998.29 997.80 997.41 996.78 997.28 997.96 998.66 998.97 998.48 997.89 997.77 997.38 996.91 996.77 997.16 997.68 998.38 999.31 1000.70 1001.78 1002.76 1003.34 1004.16 1005.45 1006.95 1008.17 1009.50
Wind_Speed
13 14 14 16 19 20 20 20 20 18 18 20 18 15 13 12 12 7 10 7 6 14 4 10 13 14 14 16 18 18 8 9 20 11 10 18 17 17 15 18 21 22 21 17 15
14 14 15 16 19 19 20 21 21 19 19 20 17 14 12 9 9 14 6 7 14 13 10 14 13 12 11 13 13 7 8 14 16 14 15 17 13 17 16 17 18 18 18 17 17
15 14 14 16 19 20 21 22 21 19 19 19 17 13 10 7 10 13 8 13 10 11 14 13 14 12 15 16 4 11 7 7 18 18 16 13 8 30 8 15 15 17 17 17 16
16 16 15 17 18 22 21 23 22 21 19 19 16 12 6 8 3 7 8 12 9 13 13 14 16 13 16 13 20 11 23 2 15 13 14 13 11 17 13 18 15 16 15 12 12
15 17 17 15 19 22 23 23 23 21 19 18 14 9 6 9 9 12 10 10 10 8 15 16 15 15 18 11 5 5 10 13 9 12 14 13 13 13 13 15 16 15 14 13 13
14 16 18 18 17 21 23 23 23 20 19 17 11 3 7 12 16 15 14 13 13 13 16 16 12 8 12 7 6 17 7 11 8 12 9 15 14 11 12 14 15 15 14 14 14
14 16 18 20 20 21 24 24 23 20 18 15 7 6 10 12 12 13 14 14 14 18 16 16 4 7 13 3 6 10 10 10 10 9 10 15 9 13 13 14 15 14 13 14 13
15 16 18 21 22 24 26 26 24 20 16 12 3 8 9 6 5 15 15 14 14 15 17 7 3 10 14 2 8 9 8 4 20 6 10 11 9 13 15 14 15 15 14 14 14
16 17 19 21 25 25 26 30 27 20 10 5 6 8 13 5 10 12 14 15 14 14 8 1 5 14 9 9 8 10 9 21 22 26 18 10 6 17 14 14 14 14 14 14 13
16 17 20 22 25 27 28 31 9 3 6 9 11 10 13 12 14 12 16 11 12 11 8 10 7 11 12 12 12 15 12 10 22 21 25 14 7 18 16 15 15 15 15 15 14
17 18 20 23 24 27 18 11 7 7 12 14 5 11 6 5 10 11 14 15 16 13 15 17 14 15 19 17 19 11 6 17 24 29 35 5 8 20 19 16 16 17 16 14 16
16 19 21 23 25 27 12 7 6 8 12 18 18 18 2 7 9 13 15 15 16 16 17 14 18 19 20 18 18 21 19 14 5 12 6 5 12 16 22 20 18 16 16 18 17
15 19 22 25 26 14 11 4 8 11 8 16 21 19 15 11 15 16 20 20 19 17 21 19 19 20 22 20 19 17 18 12 19 10 8 9 15 14 23 21 17 15 14 19 19
15 19 22 28 10 12 9 3 8 7 7 13 18 17 20 14 17 16 21 20 15 19 18 20 21 24 23 23 20 17 16 13 19 18 13 5 13 18 19 18 19 18 16 18 18
15 15 21 11 14 9 11 9 10 5 8 19 18 14 16 19 11 16 20 21 20 17 19 20 22 20 20 23 16 15 14 18 17 17 19 15 11 7 15 18 20 18 18 20 19
15 15 15 14 8 15 15 12 8 8 9 9 11 13 18 18 17 18 21 22 17 18 16 17 13 19 8 13 10 16 18 14 12 16 14 9 3 7 10 21 19 19 20 22 21
16 16 10 11 9 16 12 9 7 12 8 12 16 19 21 16 19 18 22 23 20 14 14 17 20 4 5 13 19 19 13 9 12 10 3 2 9 7 30 16 21 19 24 23 21
17 18 10 12 13 13 8 9 10 14 21 12 13 20 19 19 19 22 19 19 24 20 13 15 14 18 14 18 17 12 15 11 9 9 13 18 9 6 13 5 15 18 24 24 21
23 8 11 12 16 10 8 11 11 8 2 8 7 15 16 20 16 17 18 20 22 21 17 13 19 17 20 17 16 16 18 18 16 16 16 5 4 5 17 5 14 24 23 23 20
8 8 12 17 7 7 9 18 20 9 8 3 10 11 14 19 19 19 20 22 22 24 19 19 15 19 19 16 18 20 13 11 7 16 13 12 6 7 20 12 11 21 20 16 21
7 5 1 10 6 8 12 19 18 10 4 5 13 16 17 16 18 18 17 15 23 23 22 21 14 20 20 14 16 14 13 12 10 4 11 5 5 6 4 13 11 17 16 17 16
5 5 7 6 8 9 14 19 18 9 4 8 10 14 12 12 17 18 19 17 16 19 23 21 7 13 12 20 18 17 11 15 10 7 11 14 6 6 6 9 12 14 17 16 15
5 8 9 6 9 13 16 23 23 9 14 9 11 10 11 12 5 10 18 15 12 14 16 14 9 9 16 10 12 14 13 12 6 4 12 11 5 1 3 11 12 16 17 15 15
5 4 6 8 13 18 14 19 21 8 16 13 9 12 10 9 7 8 14 6 5 7 10 12 10 11 13 12 9 20 17 16 10 7 7 4 11 5 5 9 11 16 18 17 14
5 5 10 7 13 16 17 20 18 14 15 14 11 14 13 9 13 13 14 14 8 8 8 12 11 15 19 18 14 17 17 20 18 10 6 5 2 17 12 11 11 14 15 16 16
4 4 8 15 15 19 16 16 17 19 14 15 14 15 16 11 10 14 10 6 12 12 10 10 8 13 19 14 15 9 13 6 4 8 5 4 9 13 11 13 13 15 15 16 15
6 8 6 11 13 10 15 15 14 14 15 13 17 16 11 4 11 13 12 9 11 9 10 8 9 11 17 19 13 12 13 12 7 2 1 3 11 11 6 10 12 14 14 15 14
Wind_Direction
338 337 331 324 320 320 318 316 317 316 309 303 309 315 316 312 299 233 233 232 178 165 247 193 224 241 259 255 253 265 268 303 109 110 138 93 99 86 83 69 66 65 97 112 110
333 333 329 325 318 316 315 314 313 314 309 309 314 316 316 312 266 250 183 123 144 160 207 206 213 223 242 253 238 10 51 285 124 130 90 92 115 129 108 106 99 101 114 133 147
329 329 330 323 318 317 315 311 311 312 312 311 315 314 300 289 269 216 153 139 157 186 234 215 221 218 237 240 212 359 190 81 96 98 97 111 130 91 300 127 132 127 136 154 175
326 327 330 322 318 313 313 311 311 312 312 309 312 306 298 248 318 106 159 146 164 219 241 233 234 219 250 235 129 164 232 154 104 106 118 99 87 75 98 101 117 127 141 150 145
323 324 324 325 317 313 312 310 307 310 308 305 306 293 255 235 248 137 153 130 165 215 235 220 232 224 251 237 215 243 132 104 119 129 110 136 108 102 104 117 120 130 145 155 112
321 321 321 320 317 311 310 308 306 307 301 303 299 273 251 258 103 147 156 159 186 209 231 225 223 256 297 246 211 150 130 139 158 108 145 102 119 117 128 128 135 151 155 123 120
319 320 319 317 317 312 310 306 304 304 300 295 292 262 270 258 143 172 162 184 211 207 226 225 312 289 291 220 121 221 178 156 151 158 131 158 157 137 150 151 156 152 144 131 132
319 319 320 317 315 314 311 308 305 298 292 278 275 265 268 177 256 161 185 191 211 239 242 209 246 271 277 217 243 180 202 170 356 261 163 203 175 142 163 164 160 160 150 147 147
319 320 319 317 315 313 311 309 296 284 245 268 242 225 248 110 214 184 188 193 200 222 241 150 225 240 276 184 197 232 130 78 328 306 298 139 160 160 183 177 169 170 162 159 153
319 319 318 316 314 312 317 296 290 247 207 231 262 262 231 213 192 179 185 201 190 198 201 222 220 234 229 212 207 238 60 182 189 244 269 192 183 160 171 194 181 182 175 176 154
319 320 319 315 313 311 333 318 236 180 230 246 178 237 156 110 131 186 193 193 185 206 208 202 208 212 210 231 248 281 238 207 186 199 233 197 211 161 165 199 210 186 186 170 151
319 322 320 315 312 312 294 298 24 314 295 270 250 255 190 140 187 192 178 197 190 202 213 188 218 224 234 225 246 272 278 265 104 146 202 259 238 187 170 191 210 198 193 159 155
324 325 321 317 314 293 265 357 301 318 264 274 216 218 197 198 220 195 184 204 191 210 208 224 213 227 247 238 231 245 265 282 278 153 207 251 262 251 178 174 201 213 185 162 161
322 324 324 327 293 336 285 344 327 4 272 225 196 210 207 192 225 193 191 205 192 203 228 235 235 205 232 251 238 243 248 251 273 288 276 287 256 267 165 174 190 207 169 168 160
315 322 323 312 303 287 358 318 330 257 273 149 180 204 198 189 184 194 186 215 239 209 200 224 224 239 228 238 241 257 265 266 264 258 267 260 268 12 177 188 193 202 186 167 157
312 314 330 301 231 264 281 320 278 236 247 154 141 181 174 198 216 184 182 215 229 244 242 254 225 239 239 291 278 265 253 252 276 274 265 345 63 290 220 198 191 192 155 157 164
312 306 298 299 262 336 308 277 227 239 159 157 179 187 196 190 204 176 188 199 219 227 225 230 249 179 223 236 249 249 247 246 243 243 281 271 315 232 259 189 187 184 152 151 149
313 301 262 251 271 286 299 253 245 228 246 144 182 178 195 190 214 185 190 203 215 222 232 219 214 234 182 238 233 234 236 245 239 231 240 192 242 183 182 123 162 163 139 141 150
307 275 252 255 222 239 250 227 219 272 212 145 246 188 193 196 207 181 200 211 209 223 229 235 231 244 206 214 229 218 235 238 259 269 283 146 274 62 24 329 139 139 147 155 151
314 294 260 260 163 213 236 247 242 360 337 341 220 224 200 203 196 200 195 200 217 205 230 252 270 267 182 204 225 241 212 251 248 266 293 333 9 296 203 177 168 142 148 153 152
266 254 261 175 154 226 232 236 240 278 310 269 272 298 230 192 209 224 214 206 204 204 199 237 258 279 175 192 213 231 245 245 259 172 257 246 142 261 322 149 167 148 152 161 151
270 256 147 206 212 227 232 241 267 274 199 255 283 289 307 275 190 218 228 221 190 216 195 214 241 259 242 197 197 240 259 241 255 279 25 306 34 8 36 136 150 148 160 156 146
261 262 285 222 228 231 228 253 253 219 248 238 250 256 293 293 279 238 237 207 181 196 218 193 230 257 265 178 212 222 245 272 119 78 294 288 122 107 122 137 160 161 161 143 149
279 266 219 214 249 262 259 226 247 209 259 259 264 297 269 249 278 282 235 213 142 229 220 183 207 233 256 185 288 207 225 250 257 212 243 83 51 270 199 147 170 165 153 159 158
248 256 305 244 220 238 254 269 228 227 211 235 254 255 254 237 235 226 262 222 168 160 205 191 229 228 253 263 271 273 205 224 244 242 251 299 345 195 155 159 170 151 153 157 162
296 340 330 299 282 217 240 251 246 230 216 213 234 235 236 260 274 322 250 346 186 175 214 181 203 247 259 244 252 165 248 226 234 274 304 316 48 100 126 143 160 154 166 167 172
307 307 287 287 277 261 223 232 259 243 220 241 217 244 273 9 351 328 317 307 307 246 191 200 200 241 244 256 226 239 224 214 210 247 342 331 102 116 135 153 162 159 174 171 175